Weather History for KMKO - March, 2013

Change the Weather History Date:

Saturday, March 9, 2013

  Actual Average Record
Temperature  
Mean Temperature 56 °F -  
Max Temperature 61 °F 55 °F 80 °F (2009)
Min Temperature 51 °F 34 °F 21 °F (1998)
Degree Days  
Heating Degree Days 9    
Growing Degree Days 6 (Base 50)    
Moisture  
Dew Point 52 °F    
Average Humidity 82    
Maximum Humidity 100    
Minimum Humidity 47    
Precipitation  
Precipitation 1.00 in - - ()
Sea Level Pressure  
Sea Level Pressure 29.80 in    
Wind  
Wind Speed 13 mph (SSE)    
Max Wind Speed 18 mph    
Max Gust Speed 25 mph    
Visibility 7 miles    
Events Rain , Thunderstorm    
Averages and records for this station are not official NWS values.
T = Trace of Precipitation, MM = Missing Value Source: NWS Daily Summary

Daily Weather History Graph

Daily Weather History Graph

Search for Another Location

Airport or City:

Trip Planner

Search our weather history database for the weather conditions in past years. The results will help you decide how hot, cold, wet, or windy it might be!

Date:

Astronomy

Mar. 09, 2013 Rise Set
Actual Time 6:40 AM CST 6:24 PM CST
Civil Twilight 6:14 AM CST 6:49 PM CST
Nautical Twilight 5:45 AM CST 7:19 PM CST
Astronomical Twilight 5:15 AM CST 7:48 PM CST
Moon 5:01 AM CST (3/9) 4:29 PM CST (3/9)
Length of Visible Light 12h 34m
Length of Day
11h 43m
Waning Crescent, 5% of the Moon is Illuminated
Mar 9
Waning Crescent
Mar 11
New
Mar 19
First Quarter
Mar 27
Full
Apr 2
Last Quarter

Hourly Weather History & Observations

Time (CST) Temp. Dew Point Humidity Pressure Visibility Wind Dir Wind Speed Gust Speed Precip Events Conditions
12:53 AM 57.0 °F 37.0 °F 47% 30.01 in 10.0 mi SE 16.1 mph 20.7 mph N/A   Overcast
1:53 AM 55.0 °F 37.0 °F 51% 29.98 in 10.0 mi SE 17.3 mph 24.2 mph N/A   Overcast
2:53 AM 55.0 °F 37.0 °F 51% 29.95 in 10.0 mi SE 16.1 mph - N/A   Overcast
3:53 AM 54.0 °F 37.0 °F 53% 29.95 in 10.0 mi SE 13.8 mph - N/A   Overcast
4:53 AM 52.0 °F 37.9 °F 59% 29.95 in 10.0 mi SE 11.5 mph - N/A   Overcast
5:53 AM 51.1 °F 37.9 °F 61% 29.92 in 10.0 mi SE 16.1 mph - N/A   Mostly Cloudy
6:53 AM 51.1 °F 39.0 °F 63% 29.94 in 10.0 mi SSE 11.5 mph - N/A   Partly Cloudy
7:22 AM 51.8 °F 39.2 °F 62% 29.96 in 10.0 mi SSE 8.1 mph - N/A   Overcast
7:53 AM 52.0 °F 39.9 °F 63% 29.94 in 10.0 mi SE 10.4 mph - N/A   Overcast
8:53 AM 54.0 °F 42.1 °F 64% 29.92 in 10.0 mi SE 9.2 mph - N/A   Overcast
9:53 AM 57.0 °F 44.1 °F 62% 29.88 in 10.0 mi SSE 11.5 mph - N/A   Overcast
10:02 AM 57.2 °F 44.6 °F 63% 29.89 in 10.0 mi SE 16.1 mph 21.9 mph N/A   Overcast
10:10 AM 59.0 °F 44.6 °F 59% 29.88 in 10.0 mi SSE 12.7 mph - N/A   Overcast
10:26 AM 60.8 °F 46.4 °F 59% 29.88 in 10.0 mi SSE 10.4 mph 18.4 mph N/A   Overcast
10:53 AM 61.0 °F 50.0 °F 67% 29.87 in 10.0 mi SSE 18.4 mph - N/A   Overcast
11:53 AM 60.1 °F 53.1 °F 78% 29.85 in 10.0 mi SSE 15.0 mph - 0.00 in   Overcast
12:53 PM 61.0 °F 54.0 °F 78% 29.82 in 6.0 mi SSE 18.4 mph 25.3 mph 0.00 in Rain Light Rain
1:53 PM 61.0 °F 55.0 °F 81% 29.78 in 10.0 mi SSE 16.1 mph 23.0 mph 0.00 in   Overcast
2:53 PM 61.0 °F 55.9 °F 83% 29.76 in 4.0 mi SSE 13.8 mph 20.7 mph 0.00 in Rain Light Rain
3:03 PM 59.0 °F 57.2 °F 94% 29.76 in 2.0 mi SSE 11.5 mph 21.9 mph 0.01 in Rain Light Rain
3:12 PM 60.8 °F 57.2 °F 88% 29.76 in 3.0 mi SSE 11.5 mph - 0.01 in Rain Light Rain
3:53 PM 60.1 °F 57.9 °F 93% 29.74 in 9.0 mi SSE 13.8 mph 23.0 mph 0.01 in   Overcast
4:53 PM 61.0 °F 57.0 °F 87% 29.72 in 10.0 mi SSE 16.1 mph 23.0 mph N/A   Overcast
5:53 PM 61.0 °F 57.0 °F 87% 29.70 in 10.0 mi SE 15.0 mph - 0.00 in   Overcast
6:21 PM 60.8 °F 57.2 °F 88% 29.71 in 10.0 mi SE 13.8 mph 20.7 mph N/A   Overcast
6:48 PM 59.0 °F 57.2 °F 94% 29.70 in 7.0 mi SE 12.7 mph - 0.01 in Rain Light Rain
6:53 PM 59.0 °F 57.9 °F 96% 29.70 in 7.0 mi SE 13.8 mph - 0.01 in Rain Light Rain
7:07 PM 59.0 °F 59.0 °F 100% 29.69 in 6.0 mi SE 15.0 mph - 0.00 in Rain , Thunderstorm Light Thunderstorms and Rain
7:28 PM 59.0 °F 59.0 °F 100% 29.68 in 7.0 mi SE 13.8 mph - 0.02 in Rain Light Rain
7:53 PM 60.1 °F 60.1 °F 100% 29.69 in 3.0 mi SSE 13.8 mph - 0.08 in Rain , Thunderstorm Thunderstorms and Rain
7:56 PM 60.8 °F 60.8 °F 100% 29.69 in 2.5 mi SSE 11.5 mph - 0.03 in Rain , Thunderstorm Heavy Thunderstorms and Rain
8:16 PM 59.0 °F 59.0 °F 100% 29.68 in 3.0 mi SE 13.8 mph - 0.15 in Rain , Thunderstorm Heavy Thunderstorms and Rain
8:31 PM 60.8 °F 60.8 °F 100% 29.70 in 2.0 mi Variable 6.9 mph - 0.26 in Rain , Thunderstorm Heavy Thunderstorms and Rain
8:37 PM 59.0 °F 59.0 °F 100% 29.72 in 1.5 mi West 16.1 mph - 0.38 in Rain , Thunderstorm Heavy Thunderstorms and Rain
8:41 PM 59.0 °F 59.0 °F 100% 29.71 in 1.0 mi West 9.2 mph - 0.54 in Rain , Thunderstorm Heavy Thunderstorms and Rain
8:53 PM 57.9 °F 57.9 °F 100% 29.71 in 1.5 mi WSW 12.7 mph 17.3 mph 0.70 in Rain , Thunderstorm Heavy Thunderstorms and Rain
8:58 PM 57.2 °F 57.2 °F 100% 29.72 in 2.5 mi West 10.4 mph - 0.01 in Rain , Thunderstorm Thunderstorms and Rain
9:03 PM 57.2 °F 57.2 °F 100% 29.73 in 5.0 mi West 6.9 mph - 0.02 in Rain Rain
9:17 PM 57.2 °F 57.2 °F 100% 29.72 in 5.0 mi Calm Calm - 0.05 in Rain , Thunderstorm Thunderstorms and Rain
9:32 PM 57.2 °F 57.2 °F 100% 29.72 in 8.0 mi Calm Calm - 0.07 in Rain Light Rain
9:41 PM 57.2 °F 57.2 °F 100% 29.76 in 4.0 mi South 11.5 mph - 0.12 in Rain , Thunderstorm Heavy Rain
9:53 PM 57.0 °F 57.0 °F 100% 29.77 in 4.0 mi South 9.2 mph - 0.17 in Rain Rain
10:53 PM 55.0 °F 55.0 °F 100% 29.71 in 10.0 mi SE 6.9 mph - 0.03 in Rain Light Rain
11:53 PM 55.0 °F 54.0 °F 96% 29.72 in 10.0 mi SSE 9.2 mph - 0.00 in   Overcast